Location: Woodhurst
(52.3667°N, 0.0667°W)
Time: 00:24:23
(UTC+00:00)

Meteor 2-8 Rocket - Pass Details

Date: 19 May 2025
Orbit: 937 x 957 km, 82.5° (Epoch: 18 June)

Event Time Altitude Azimuth Distance (km) Brightness Sun altitude
Rises 23:12:33 0° 349° (N) 3,650 9.3 -17.0°
Reaches altitude 10° 23:15:04 10° 351° (N) 2,701 8.2 -17.1°
Maximum altitude 23:21:16 80° 78° (ENE) 978 4.5 -17.2°
Enters shadow 23:24:50 27° 163° (SSE) 1,745 5.2 -17.3°
